Location: Esterri de Aneo
(42.6284°N, 1.1223°E)
Time: 17:33:03
(UTC+00:00)

YAOGAN 1 - Pass Details

Date: 11 December 2025
Orbit: 605 x 607 km, 97.8° (Epoch: 22 January)

Event Time Altitude Azimuth Distance (km) Brightness Sun altitude
Rises 16:53:31 0° 112° (ESE) 2,860 5.6 -5.9°
Reaches altitude 10° 16:57:26 10° 74° (ENE) 1,963 4.5 -6.6°
Maximum altitude 16:58:26 11° 61° (ENE) 1,915 4.4 -6.7°
Drops below altitude 10° 16:59:24 10° 47° (NE) 1,962 4.5 -6.9°
Sets 17:03:22 0° 10° (N) 2,877 5.6 -7.6°
